Kars, Turkey

10:58 AM EET on February 12, 2016 (GMT +0200)
Kars

Weather History for LTCF - March, 2013

Change the Weather History Date:

Thursday, March 21, 2013

  Actual Average Record
Temperature  
Mean Temperature 34 °F -  
Max Temperature 47 °F 47 °F - ()
Min Temperature 21 °F 28 °F - ()
Degree Days  
Heating Degree Days 31    
Moisture  
Dew Point 26 °F    
Average Humidity 71    
Maximum Humidity 100    
Minimum Humidity 34    
Precipitation  
Precipitation 0.00 in 0.05 in - ()
Sea Level Pressure  
Sea Level Pressure 30.08 in    
Wind  
Wind Speed 3 mph ()    
Max Wind Speed 9 mph    
Max Gust Speed -    
Visibility 6.2 miles    
Events      
T = Trace of Precipitation, MM = Missing Value Source: Averaged Metar Reports

Daily Weather History Graph

Daily Weather History Graph

Search for Another Location

Airport or City:

Trip Planner

Search our weather history database for the weather conditions in past years. The results will help you decide how hot, cold, wet, or windy it might be!

Date:

Astronomy

Mar. 21, 2013 Rise Set
Actual Time 5:09 AM EET 5:20 PM EET
Civil Twilight 4:42 AM EET 5:47 PM EET
Nautical Twilight 4:10 AM EET 6:19 PM EET
Astronomical Twilight 3:37 AM EET 6:52 PM EET
Moon 11:28 AM EET (3/21) 1:17 AM EET (3/21)
Length of Visible Light 13h 05m
Length of Day
12h 11m
Waxing Gibbous, 66% of the Moon is Illuminated
Mar 21
Waxing Gibbous
Mar 27
Full
Apr 3
Last Quarter
Apr 10
New
Apr 18
First Quarter

Hourly Weather History & Observations

Time (EET) Temp. Windchill Dew Point Humidity Pressure Visibility Wind Dir Wind Speed Gust Speed Precip Events Conditions
12:50 AM 28.4 °F - 23.0 °F 80% 30.06 in 6.2 mi Calm Calm - N/A   Scattered Clouds
1:50 AM 24.8 °F - 23.0 °F 93% 30.06 in 6.2 mi Calm Calm - N/A   Scattered Clouds
2:00 AM 25 °F - 24 °F 92%  in 6 mi Calm Calm - -   Partly Cloudy
2:50 AM 24.8 °F 16.9 °F 24.8 °F 100% 30.06 in 6.2 mi WNW 6.9 mph - N/A   Scattered Clouds
3:50 AM 23.0 °F - 21.2 °F 93% 30.06 in 6.2 mi Calm Calm - N/A   Scattered Clouds
4:50 AM 23.0 °F - 21.2 °F 93% 30.06 in 6.2 mi Variable 2.3 mph - N/A   Partly Cloudy
5:50 AM 24.8 °F - 23.0 °F 93% 30.09 in 6.2 mi Calm Calm - N/A   Partly Cloudy
6:50 AM 32.0 °F - 24.8 °F 75% 30.09 in 6.2 mi Calm Calm - N/A   Partly Cloudy
7:50 AM 32.0 °F - 24.8 °F 75% 30.09 in - Variable 2.3 mph - N/A   Clear
8:00 AM 31 °F - 25 °F 69%  in 6 mi WNW 2.3 mph - -  
8:50 AM 35.6 °F 29.2 °F 26.6 °F 70% 30.09 in - West 8.1 mph - N/A   Clear
9:50 AM 41.0 °F 38.0 °F 26.6 °F 57% 30.09 in 6.2 mi West 4.6 mph - N/A   Partly Cloudy
10:50 AM 42.8 °F 39.3 °F 28.4 °F 57% 30.09 in 6.2 mi West 5.8 mph - N/A   Partly Cloudy
11:50 AM 44.6 °F 40.7 °F 24.8 °F 46% 30.09 in 6.2 mi West 6.9 mph - N/A   Partly Cloudy
12:50 PM 46.4 °F 42.9 °F 26.6 °F 46% 30.09 in 6.2 mi West 6.9 mph - N/A   Scattered Clouds
1:50 PM 46.4 °F 43.5 °F 28.4 °F 50% 30.06 in 6.2 mi West 5.8 mph - N/A   Scattered Clouds
2:00 PM 47 °F - 28 °F 34%  in 6 mi West 5.8 mph - -   Partly Cloudy
2:50 PM 48.2 °F - 28.4 °F 46% 30.06 in 6.2 mi West 8.1 mph - N/A   Scattered Clouds
3:50 PM 46.4 °F - 26.6 °F 46% 30.06 in 6.2 mi Variable 2.3 mph - N/A   Scattered Clouds
4:50 PM 42.8 °F 37.5 °F 28.4 °F 57% 30.06 in 6.2 mi WSW 9.2 mph - N/A   Scattered Clouds
5:50 PM 37.4 °F 31.4 °F 28.4 °F 70% 30.09 in 6.2 mi WSW 8.1 mph - N/A   Scattered Clouds
6:50 PM 33.8 °F 28.6 °F 28.4 °F 81% 30.09 in - SSW 5.8 mph - N/A   Clear
7:50 PM 33.8 °F 28.6 °F 28.4 °F 81% 30.09 in - SSW 5.8 mph - N/A   Clear
8:00 PM 33 °F - 27 °F 72%  in 6 mi SSW 5.8 mph - -  
8:50 PM 33.8 °F 29.6 °F 26.6 °F 75% 30.09 in - SW 4.6 mph - N/A   Clear
9:50 PM 32.0 °F 24.8 °F 26.6 °F 80% 30.09 in - SSW 8.1 mph - N/A   Clear
10:50 PM 32.0 °F 25.6 °F 24.8 °F 75% 30.09 in - West 6.9 mph - N/A   Clear
11:50 PM 30.2 °F - 26.6 °F 86% 30.09 in - Variable 1.2 mph - N/A   Clear